KMUT

Details ICAO KMUT
Name MUSCATINE MUNI
Region United States
Timezone America/Chicago (UTC-5.0)
Plans Departing 4
Arriving 4
Stats Elevation 547 ft / 167 m (AMSL)
Location 41.368187° -91.148667°
Runways 2
Magnetic Variation 1.129° W
Sunrise 2018-05-26 10:38:19 UTC / 2018-05-26 05:38:19 Local
Sunset 2018-05-27 01:27:53 UTC / 2018-05-26 20:27:53 Local
Advertisement - Login to hide

Runways

ID Width Length Bearing (true) Bearing (mag) Surface Threshold Offset Overrun Length
06 100 ft / 30 m 5,493 ft / 1,674 m 58.40° 59.53° Concrete 0 ft / 0 m 200 ft / 61 m
12 75 ft / 23 m 3,996 ft / 1,218 m 125.17° 126.30° Concrete 0 ft / 0 m 0 ft / 0 m
24 100 ft / 30 m 5,493 ft / 1,674 m 238.41° 239.54° Concrete 0 ft / 0 m 800 ft / 244 m
30 75 ft / 23 m 3,996 ft / 1,218 m 305.18° 306.31° Concrete 0 ft / 0 m 0 ft / 0 m

Map

Weather


0- 5 10 15 20 25 30 35+ Temperature / ° C

Clouds and Precipitation
Forecast for 2018-05-27 00:00 UTC. Updated an hour ago

Ground ~20,000 ft ~40,000 ft Winds

METAR

KMUT 262355Z AUTO 00000KT 10SM CLR 30/23 A2974 RMK AO2 PNO

TAF

Not found

Frequencies

Recorded 119.77 MHz AWOS 3
Clearance 124.25 MHz QUAD CITY CLNC DEL
Unicom 122.70 MHz CTAF/UNICOM
Approach 118.20 MHz QUAD CITY APP/DEP
Warning: Do not use this data for real-world aviation or navigation. No guarantee of current accuracy is given.